Time,TemperatureF,DewpointF,PressureIn,WindDirection,WindDirectionDegrees,WindSpeedMPH,WindSpeedGustMPH,Humidity,HourlyPrecipIn,Conditions,Clouds,dailyrainin,SolarRadiationWatts/m^2,SoftwareType,DateUTC
2013-05-18 00:02:00,78.0,67.0,-100.00,North,10,8.0,14.0,69,0.00,,,0.00,1.000000,,2013-05-18 10:02:00,
2013-05-18 00:12:00,78.0,67.0,-100.00,North,10,8.0,14.0,69,0.00,,,0.00,1.000000,,2013-05-18 10:12:00,
2013-05-18 00:22:00,78.0,67.0,-100.00,North,10,8.0,14.0,69,0.00,,,0.00,1.000000,,2013-05-18 10:22:00,
2013-05-18 00:33:00,78.0,67.0,-100.00,North,10,8.0,14.0,69,0.00,,,0.00,1.000000,,2013-05-18 10:33:00,
2013-05-18 01:02:00,77.0,62.0,-100.00,North,8,9.0,16.0,60,0.00,,,0.00,0.000000,,2013-05-18 11:02:00,
2013-05-18 01:12:00,77.0,62.0,-100.00,North,8,9.0,16.0,60,0.00,,,0.00,0.000000,,2013-05-18 11:12:00,
2013-05-18 01:22:00,77.0,62.0,-100.00,North,8,9.0,16.0,60,0.00,,,0.00,0.000000,,2013-05-18 11:22:00,
2013-05-18 01:33:00,77.0,62.0,-100.00,North,8,9.0,16.0,60,0.00,,,0.00,0.000000,,2013-05-18 11:33:00,
2013-05-18 02:01:00,77.0,63.0,-100.00,North,10,9.0,15.0,63,0.00,,,0.00,0.000000,,2013-05-18 12:01:00,
2013-05-18 02:12:00,77.0,63.0,-100.00,North,10,9.0,15.0,63,0.00,,,0.00,0.000000,,2013-05-18 12:12:00,
2013-05-18 02:23:00,77.0,63.0,-100.00,North,10,9.0,15.0,63,0.00,,,0.00,0.000000,,2013-05-18 12:23:00,
2013-05-18 02:33:00,77.0,63.0,-100.00,North,10,9.0,15.0,63,0.00,,,0.00,0.000000,,2013-05-18 12:33:00,
2013-05-18 03:01:00,78.0,65.0,-100.00,North,8,8.0,13.0,65,0.00,,,0.00,1.000000,,2013-05-18 13:01:00,
2013-05-18 03:11:00,78.0,65.0,-100.00,North,8,8.0,13.0,65,0.00,,,0.00,1.000000,,2013-05-18 13:11:00,
2013-05-18 03:21:00,78.0,65.0,-100.00,North,8,8.0,13.0,65,0.00,,,0.00,1.000000,,2013-05-18 13:21:00,
2013-05-18 03:32:00,78.0,65.0,-100.00,North,8,8.0,13.0,65,0.00,,,0.00,1.000000,,2013-05-18 13:32:00,
2013-05-18 04:03:00,76.0,63.0,-100.00,North,9,10.0,16.0,64,0.00,,,0.00,0.000000,,2013-05-18 14:03:00,
2013-05-18 04:12:00,76.0,63.0,-100.00,North,9,10.0,16.0,64,0.00,,,0.00,0.000000,,2013-05-18 14:12:00,
2013-05-18 04:22:00,76.0,63.0,-100.00,North,9,10.0,16.0,64,0.00,,,0.00,0.000000,,2013-05-18 14:22:00,
2013-05-18 04:32:00,76.0,63.0,-100.00,North,9,10.0,16.0,64,0.00,,,0.00,0.000000,,2013-05-18 14:32:00,
2013-05-18 05:03:00,78.0,66.0,-100.00,North,9,8.0,16.0,66,0.00,,,0.00,0.000000,,2013-05-18 15:03:00,
2013-05-18 05:13:00,78.0,66.0,-100.00,North,9,8.0,16.0,66,0.00,,,0.00,0.000000,,2013-05-18 15:13:00,
2013-05-18 05:23:00,78.0,66.0,-100.00,North,9,8.0,16.0,66,0.00,,,0.00,0.000000,,2013-05-18 15:23:00,
2013-05-18 05:33:00,78.0,66.0,-100.00,North,9,8.0,16.0,66,0.00,,,0.00,0.000000,,2013-05-18 15:33:00,
2013-05-18 06:02:00,76.0,65.0,-100.00,North,10,8.0,14.0,68,0.00,,,0.00,0.000000,,2013-05-18 16:02:00,
2013-05-18 06:12:00,76.0,65.0,-100.00,North,10,8.0,14.0,68,0.00,,,0.00,0.000000,,2013-05-18 16:12:00,
2013-05-18 06:22:00,76.0,65.0,-100.00,North,10,8.0,14.0,68,0.00,,,0.00,0.000000,,2013-05-18 16:22:00,
2013-05-18 06:32:00,76.0,65.0,-100.00,North,10,8.0,14.0,68,0.00,,,0.00,0.000000,,2013-05-18 16:32:00,
2013-05-18 07:02:00,78.0,66.0,-100.00,North,9,7.0,14.0,66,0.00,,,0.00,9.000000,,2013-05-18 17:02:00,
2013-05-18 07:12:00,78.0,66.0,-100.00,North,9,7.0,14.0,66,0.00,,,0.00,9.000000,,2013-05-18 17:12:00,
2013-05-18 07:22:00,78.0,66.0,-100.00,North,9,7.0,14.0,66,0.00,,,0.00,9.000000,,2013-05-18 17:22:00,
2013-05-18 07:32:00,78.0,66.0,-100.00,North,9,7.0,14.0,66,0.00,,,0.00,9.000000,,2013-05-18 17:32:00,
2013-05-18 08:01:00,77.0,65.0,-100.00,North,10,6.0,14.0,67,0.00,,,0.00,58.000000,,2013-05-18 18:01:00,
2013-05-18 08:12:00,77.0,65.0,-100.00,North,10,6.0,14.0,67,0.00,,,0.00,58.000000,,2013-05-18 18:12:00,
2013-05-18 08:21:00,77.0,65.0,-100.00,North,10,6.0,14.0,67,0.00,,,0.00,58.000000,,2013-05-18 18:21:00,
2013-05-18 08:31:00,77.0,65.0,-100.00,North,10,6.0,14.0,67,0.00,,,0.00,58.000000,,2013-05-18 18:31:00,
2013-05-18 09:02:00,81.0,64.0,-100.00,North,8,5.0,11.0,56,0.00,,,0.00,250.000000,,2013-05-18 19:02:00,
2013-05-18 09:11:00,81.0,64.0,-100.00,North,8,5.0,11.0,56,0.00,,,0.00,250.000000,,2013-05-18 19:11:00,
2013-05-18 09:22:00,81.0,64.0,-100.00,North,8,5.0,11.0,56,0.00,,,0.00,250.000000,,2013-05-18 19:22:00,
2013-05-18 09:31:00,81.0,64.0,-100.00,North,8,5.0,11.0,56,0.00,,,0.00,250.000000,,2013-05-18 19:31:00,
2013-05-18 10:01:00,87.0,69.0,-100.00,North,11,4.0,11.0,56,0.00,,,0.00,375.000000,,2013-05-18 20:01:00,
2013-05-18 10:11:00,87.0,69.0,-100.00,North,11,4.0,11.0,56,0.00,,,0.00,375.000000,,2013-05-18 20:11:00,
2013-05-18 10:22:00,87.0,69.0,-100.00,North,11,4.0,11.0,56,0.00,,,0.00,375.000000,,2013-05-18 20:22:00,
2013-05-18 10:32:00,87.0,69.0,-100.00,North,11,4.0,11.0,56,0.00,,,0.00,375.000000,,2013-05-18 20:32:00,
2013-05-18 11:01:00,93.0,68.0,-100.00,NNE,22,3.0,10.0,45,0.00,,,0.00,595.000000,,2013-05-18 21:01:00,
2013-05-18 11:12:00,93.0,68.0,-100.00,NNE,22,3.0,10.0,45,0.00,,,0.00,595.000000,,2013-05-18 21:12:00,
2013-05-18 11:21:00,93.0,68.0,-100.00,NNE,22,3.0,10.0,45,0.00,,,0.00,595.000000,,2013-05-18 21:21:00,
2013-05-18 11:32:00,93.0,68.0,-100.00,NNE,22,3.0,10.0,45,0.00,,,0.00,595.000000,,2013-05-18 21:32:00,
2013-05-18 12:03:00,81.0,66.0,-100.00,ESE,123,4.0,7.0,61,0.00,,,0.00,155.000000,,2013-05-18 22:03:00,
2013-05-18 12:12:00,81.0,66.0,-100.00,ESE,123,4.0,7.0,61,0.00,,,0.00,155.000000,,2013-05-18 22:12:00,
2013-05-18 12:23:00,81.0,66.0,-100.00,ESE,123,4.0,7.0,61,0.00,,,0.00,155.000000,,2013-05-18 22:23:00,
2013-05-18 12:32:00,81.0,66.0,-100.00,ESE,123,4.0,7.0,61,0.00,,,0.00,155.000000,,2013-05-18 22:32:00,
2013-05-18 13:01:00,85.0,69.0,-100.00,WNW,297,2.0,9.0,59,0.00,,,0.00,406.000000,,2013-05-18 23:01:00,
2013-05-18 13:11:00,85.0,69.0,-100.00,WNW,297,2.0,9.0,59,0.00,,,0.00,406.000000,,2013-05-18 23:11:00,
2013-05-18 13:21:00,85.0,69.0,-100.00,WNW,297,2.0,9.0,59,0.00,,,0.00,406.000000,,2013-05-18 23:21:00,
2013-05-18 13:32:00,85.0,69.0,-100.00,WNW,297,2.0,9.0,59,0.00,,,0.00,406.000000,,2013-05-18 23:32:00,
2013-05-18 14:01:00,83.0,70.0,-100.00,West,274,3.0,9.0,64,0.00,,,0.00,270.000000,,2013-05-19 00:01:00,
2013-05-18 14:11:00,83.0,70.0,-100.00,West,274,3.0,9.0,64,0.00,,,0.00,270.000000,,2013-05-19 00:11:00,
2013-05-18 14:21:00,83.0,70.0,-100.00,West,274,3.0,9.0,64,0.00,,,0.00,270.000000,,2013-05-19 00:21:00,
2013-05-18 14:31:00,83.0,70.0,-100.00,West,274,3.0,9.0,64,0.00,,,0.00,270.000000,,2013-05-19 00:31:00,
2013-05-18 15:01:00,86.0,66.0,-100.00,North,6,1.0,7.0,51,0.00,,,0.00,332.000000,,2013-05-19 01:01:00,
2013-05-18 15:11:00,86.0,66.0,-100.00,North,6,1.0,7.0,51,0.00,,,0.00,332.000000,,2013-05-19 01:11:00,
2013-05-18 15:21:00,86.0,66.0,-100.00,North,6,1.0,7.0,51,0.00,,,0.00,332.000000,,2013-05-19 01:21:00,
2013-05-18 15:32:00,86.0,66.0,-100.00,North,6,1.0,7.0,51,0.00,,,0.00,332.000000,,2013-05-19 01:32:00,
2013-05-18 16:01:00,86.0,69.0,-100.00,NNE,31,2.0,9.0,57,0.00,,,0.00,260.000000,,2013-05-19 02:01:00,
2013-05-18 16:11:00,86.0,69.0,-100.00,NNE,31,2.0,9.0,57,0.00,,,0.00,260.000000,,2013-05-19 02:11:00,
2013-05-18 16:21:00,86.0,69.0,-100.00,NNE,31,2.0,9.0,57,0.00,,,0.00,260.000000,,2013-05-19 02:21:00,
2013-05-18 16:31:00,86.0,69.0,-100.00,NNE,31,2.0,9.0,57,0.00,,,0.00,260.000000,,2013-05-19 02:31:00,
2013-05-18 17:01:00,82.0,69.0,-100.00,NNE,20,3.0,7.0,64,0.00,,,0.00,130.000000,,2013-05-19 03:01:00,
2013-05-18 17:11:00,82.0,69.0,-100.00,NNE,20,3.0,7.0,64,0.00,,,0.00,130.000000,,2013-05-19 03:11:00,
2013-05-18 17:21:00,82.0,69.0,-100.00,NNE,20,3.0,7.0,64,0.00,,,0.00,130.000000,,2013-05-19 03:21:00,
2013-05-18 17:32:00,82.0,69.0,-100.00,NNE,20,3.0,7.0,64,0.00,,,0.00,130.000000,,2013-05-19 03:32:00,
2013-05-18 18:02:00,81.0,65.0,-100.00,NNE,14,2.0,7.0,59,0.00,,,0.00,130.000000,,2013-05-19 04:02:00,
2013-05-18 18:12:00,81.0,65.0,-100.00,NNE,14,2.0,7.0,59,0.00,,,0.00,130.000000,,2013-05-19 04:12:00,
2013-05-18 18:23:00,81.0,65.0,-100.00,NNE,14,2.0,7.0,59,0.00,,,0.00,130.000000,,2013-05-19 04:23:00,
2013-05-18 18:33:00,81.0,65.0,-100.00,NNE,14,2.0,7.0,59,0.00,,,0.00,130.000000,,2013-05-19 04:33:00,
2013-05-18 19:02:00,80.0,67.0,-100.00,North,10,2.0,5.0,65,0.00,,,0.00,47.000000,,2013-05-19 05:02:00,
2013-05-18 19:12:00,80.0,67.0,-100.00,North,10,2.0,5.0,65,0.00,,,0.00,47.000000,,2013-05-19 05:12:00,
2013-05-18 19:21:00,80.0,67.0,-100.00,North,10,2.0,5.0,65,0.00,,,0.00,47.000000,,2013-05-19 05:21:00,
2013-05-18 19:32:00,80.0,67.0,-100.00,North,10,2.0,5.0,65,0.00,,,0.00,47.000000,,2013-05-19 05:32:00,
2013-05-18 20:02:00,78.0,67.0,-100.00,North,8,5.0,8.0,69,0.00,,,0.00,6.000000,,2013-05-19 06:02:00,
2013-05-18 20:12:00,78.0,67.0,-100.00,North,8,5.0,8.0,69,0.00,,,0.00,6.000000,,2013-05-19 06:12:00,
2013-05-18 20:21:00,78.0,67.0,-100.00,North,8,5.0,8.0,69,0.00,,,0.00,6.000000,,2013-05-19 06:21:00,
2013-05-18 20:31:00,78.0,67.0,-100.00,North,8,5.0,8.0,69,0.00,,,0.00,6.000000,,2013-05-19 06:31:00,
2013-05-18 21:01:00,77.0,66.0,-100.00,North,6,5.0,11.0,68,0.00,,,0.00,1.000000,,2013-05-19 07:01:00,
2013-05-18 21:11:00,77.0,66.0,-100.00,North,6,5.0,11.0,68,0.00,,,0.00,1.000000,,2013-05-19 07:11:00,
2013-05-18 21:21:00,77.0,66.0,-100.00,North,6,5.0,11.0,68,0.00,,,0.00,1.000000,,2013-05-19 07:21:00,
2013-05-18 21:32:00,77.0,66.0,-100.00,North,6,5.0,11.0,68,0.00,,,0.00,1.000000,,2013-05-19 07:32:00,
2013-05-18 22:01:00,77.0,64.0,-100.00,North,10,8.0,13.0,65,0.00,,,0.00,0.000000,,2013-05-19 08:01:00,
2013-05-18 22:12:00,77.0,64.0,-100.00,North,10,8.0,13.0,65,0.00,,,0.00,0.000000,,2013-05-19 08:12:00,
2013-05-18 22:21:00,77.0,64.0,-100.00,North,10,8.0,13.0,65,0.00,,,0.00,0.000000,,2013-05-19 08:21:00,
2013-05-18 22:32:00,77.0,64.0,-100.00,North,10,8.0,13.0,65,0.00,,,0.00,0.000000,,2013-05-19 08:32:00,
2013-05-18 23:02:00,76.0,64.0,-100.00,North,9,7.0,14.0,66,0.00,,,0.00,1.000000,,2013-05-19 09:02:00,
2013-05-18 23:11:00,76.0,64.0,-100.00,North,9,7.0,14.0,66,0.00,,,0.00,1.000000,,2013-05-19 09:11:00,
2013-05-18 23:21:00,76.0,64.0,-100.00,North,9,7.0,14.0,66,0.00,,,0.00,1.000000,,2013-05-19 09:21:00,
2013-05-18 23:32:00,76.0,64.0,-100.00,North,9,7.0,14.0,66,0.00,,,0.00,1.000000,,2013-05-19 09:32:00,